Location: Brodie Road Observatory
(45.4241°N, 74.5431°W)
Time: 02:26:07
(UTC-04:00)

Daily predictions for brighter satellites

Satellite Brightness Start Highest point End
(mag) Time Altitude Azimuth Time Altitude Azimuth Time Altitude Azimuth
Cosmos 1689 Rocket 3.4 00:07:45 38° NE 00:07:45 38° NE 00:10:17 10° N
Helios 1A Rocket 4.2 00:04:46 10° NE 00:07:56 28° E 00:07:56 28° E
Cosmos 1953 4.0 00:06:14 10° NW 00:09:23 23° W 00:10:05 22° WSW
Cosmos 1140 Rocket 3.8 00:09:16 34° SW 00:11:28 61° WNW 00:16:41 10° NNE
Meteor 1-16 Rocket 4.2 00:07:24 10° N 00:13:00 75° E 00:14:35 49° SSE
COSMOS 2487 2.8 00:16:19 61° NE 00:16:19 61° NE 00:19:23 10° NNE
Lacrosse 5 rocket 4.4 00:13:19 10° NW 00:16:05 17° N 00:18:58 10° NE
Cosmos 1766 Rocket 4.1 00:17:07 43° E 00:17:17 43° E 00:21:34 10° NNE
COSMOS 2406 3.5 00:21:08 31° SW 00:23:52 63° WNW 00:29:35 10° NNE
Cosmos 2278 4.3 00:18:58 10° NNW 00:24:30 51° ENE 00:26:47 32° ESE
Cosmos 405 Rocket 3.9 00:25:01 32° ENE 00:25:01 32° ENE 00:27:57 10° NNE
Cosmos 1340 3.0 00:24:53 59° WNW 00:24:53 59° WNW 00:28:39 10° N
Cosmos 2026 Rocket 3.8 00:26:10 47° S 00:28:02 88° E 00:34:09 10° N
Cosmos 1818 4.1 00:23:03 10° NNW 00:28:28 55° NE 00:30:50 31° ESE
Cosmos 2195 Rocket 4.4 00:26:26 44° SSW 00:28:32 82° W 00:34:50 10° N
H-2A R/B 2.2 00:25:58 10° NNE 00:29:41 82° N 00:29:41 82° N
ATLAS 3B R/B 4.0 00:22:56 10° WSW 00:30:10 43° NW 00:37:12 10° NNE
Cosmos 1627 Rocket 4.4 00:29:20 44° SSW 00:31:22 79° W 00:37:32 10° N
Landsat 5 3.2 00:31:28 84° NE 00:31:28 84° NE 00:35:27 10° NNW
Cosmos 2221 2.4 00:27:07 10° NNW 00:31:26 71° W 00:31:38 70° WSW
NOSS 3-2 (A) 3.6 00:31:53 47° SSE 00:33:11 56° ESE 00:39:41 10° NE
Cosmos 1076 Rocket 3.4 00:34:29 72° ESE 00:34:32 73° E 00:38:47 10° NNE
Cosmos 2228 Rocket 3.4 00:31:09 10° N 00:35:30 53° ENE 00:35:54 51° E
Lacrosse 4 Rocket 4.1 00:37:38 10° W 00:40:08 15° NW 00:42:39 10° N
Okean 3 Rocket 4.3 00:40:01 39° WSW 00:40:46 43° WNW 00:45:00 10° N
Cosmos 1607 4.1 00:40:07 31° SW 00:43:18 72° NW 00:49:32 10° NNE
Cosmos 1707 3.6 00:46:39 40° W 00:46:50 40° WNW 00:50:35 10° N
ISS -1.2 00:44:15 10° WNW 00:47:08 28° N 00:50:03 10° NE
Cosmos 2082 Rocket 3.4 00:47:00 26° ESE 00:47:37 27° ESE 00:52:18 10° NE
Cosmos 1697 Rocket 4.2 00:43:04 10° N 00:48:04 31° NE 00:52:14 14° ESE
CZ-4B R/B 2.5 00:50:52 42° WNW 00:50:52 42° WNW 00:53:54 10° NNW
Cosmos 1763 Rocket 4.0 00:47:31 10° NNW 00:52:45 53° ENE 00:54:30 37° ESE
Cosmos 1833 Rocket 3.9 00:58:23 25° ESE 00:59:09 26° ESE 01:03:43 10° NE
Meteor 1-24 Rocket 4.0 00:58:29 45° SW 01:00:22 69° WNW 01:06:18 10° N
ALOS 2 3.4 01:02:49 37° W 01:02:52 37° W 01:06:57 10° NNW
Cosmos 1943 Rocket 4.2 01:01:56 10° WNW 01:04:14 13° W 01:05:02 12° WSW
USA 238 DEB 4.5 00:58:20 12° WSW 01:04:42 51° NW 01:11:35 10° NNE
USA 238 4.5 00:58:30 13° WSW 01:04:48 51° NW 01:11:41 10° NNE
Cosmos 1867 3.9 01:04:21 44° SE 01:04:49 46° ESE 01:10:02 10° NE
SL-8 R/B 4.5 01:05:11 10° WNW 01:08:29 37° WSW 01:08:29 37° WSW
Cosmos 1553 Rocket 4.2 01:03:44 10° NNW 01:09:58 62° W 01:11:52 44° SSW
Cosmos 1408 Rocket 4.3 01:14:04 39° W 01:14:40 42° WNW 01:18:56 10° N
Cosmos 1354 Rocket 4.4 01:14:26 45° SE 01:15:17 49° ESE 01:20:24 10° NNE
CZ-2C R/B 3.5 01:14:18 38° SE 01:16:16 61° ENE 01:21:54 10° N
Cosmos 1674 3.7 01:22:02 36° E 01:22:02 36° E 01:25:20 10° NNE
Cosmos 1503 Rocket 4.3 01:21:31 47° SE 01:22:28 54° ESE 01:27:39 10° NNE
Lacrosse 5 2.9 01:17:37 10° NW 01:22:29 45° NNE 01:27:20 10° ESE
Cosmos 1656 3.9 01:19:08 10° NNW 01:24:51 68° ENE 01:27:15 35° SE
Cosmos 2315 Rocket 4.1 01:19:34 10° N 01:25:55 69° E 01:28:24 38° SSE
Meteor 2-20 Rocket 4.4 01:26:41 46° S 01:28:37 79° E 01:34:48 10° NNE
Cosmos 1378 4.2 01:28:42 36° WNW 01:28:42 36° WNW 01:32:12 10° N
Cosmos 2344 3.7 01:27:46 39° S 01:30:56 67° ESE 01:39:42 10° NE
Cosmos 841 Rocket 3.4 01:26:00 10° NNW 01:31:16 83° WSW 01:32:26 56° S
Meteor 1-21 Rocket 4.2 01:30:27 51° S 01:32:01 89° ESE 01:37:44 10° N
Meteor 2-2 Rocket 4.2 01:27:19 10° NNW 01:33:02 87° W 01:34:44 49° S
CZ-2C R/B 2.6 01:27:40 10° NNE 01:33:16 84° WNW 01:34:45 51° SSW
NOSS 3-2 (C) 3.6 01:35:49 34° SW 01:38:41 73° NW 01:45:30 10° NE
CENTAUR R/B 3.4 01:37:24 30° SE 01:38:58 34° ESE 01:44:55 10° NE
Cosmos 2322 Rocket 4.4 01:35:42 10° N 01:40:04 22° NE 01:44:24 10° E
Cosmos 1151 Rocket 2.8 01:35:57 10° N 01:40:16 88° ENE 01:40:37 75° SSE
Cosmos 1743 Rocket 4.1 01:40:07 44° W 01:40:38 46° WNW 01:44:57 10° N
Cosmos 2266 Rocket 4.1 01:38:31 43° SSW 01:40:45 73° W 01:47:12 10° N
BREEZE-M DEB (TANK) 3.7 01:29:27 10° W 01:41:04 62° NNW 01:44:29 10° ENE
CZ-4C R/B 2.6 01:40:01 32° WSW 01:42:30 60° NW 01:48:36 10° NE
Helios 1A Rocket 4.4 01:40:07 10° N 01:43:31 26° WNW 01:44:16 25° W
Timation 2 Rocket 4.3 01:40:50 36° SW 01:43:50 74° WNW 01:50:40 10° NNE
Cosmos 2369 4.0 01:40:03 10° NW 01:45:24 45° WSW 01:46:13 43° SW
In-Cosmos 22 4.3 01:44:27 45° SW 01:46:01 64° WNW 01:51:40 10° N
Cosmos 2058 3.9 01:47:11 34° ESE 01:47:53 36° E 01:51:44 10° NNE
Cosmos 2151 3.0 01:48:54 59° SE 01:49:24 65° E 01:53:38 10° NNE
TRAILBLAZER 4.5 01:48:22 10° NW 01:53:00 89° WSW 01:54:01 54° SE
Genesis I 3.3 01:50:21 10° NW 01:53:59 65° W 01:53:59 65° W
Lacrosse 5 rocket 3.4 01:52:42 10° NW 01:56:30 30° NNE 02:00:27 10° E
Cosmos 1500 Rocket 4.1 01:58:11 41° W 01:58:43 43° WNW 02:02:51 10° N
Abrixas 4.4 02:04:04 25° E 02:04:04 25° E 02:05:34 10° ENE
Sich 1 4.2 02:01:33 29° SE 02:02:50 36° E 02:06:53 10° NNE
Cosmos 405 2.9 02:01:08 10° N 02:04:45 83° ENE 02:04:46 83° E
Cosmos 1908 3.8 02:02:11 10° NNW 02:05:38 43° W 02:05:38 43° W
PSLV R/B 4.1 02:03:12 10° NNE 02:07:46 56° E 02:08:55 43° SSE
ASTEX 1 3.3 02:04:28 10° N 02:09:29 84° W 02:10:51 49° SSW
Cosmos 1980 Rocket 2.3 02:05:40 10° NNW 02:11:20 76° ENE 02:14:53 24° SE
Cosmos 1437 Rocket 3.2 02:13:16 10° NNW 02:17:00 45° W 02:17:00 45° W
BREEZE-M DEB (TANK) 4.1 02:18:51 18° ESE 02:18:52 18° ESE 02:22:23 10° ENE
Meteor 2-11 Rocket 4.4 02:15:24 10° NNW 02:21:32 73° W 02:24:12 36° S
Cosmos 1300 2.6 02:19:48 10° N 02:23:40 87° E 02:24:16 62° SSE
ISS -1.4 02:21:13 10° NW 02:24:11 31° NNE 02:27:09 10° ENE
ERS-2 2.9 02:20:51 10° NNE 02:24:25 43° E 02:25:09 38° SE
NPP 4.3 02:20:42 10° NNE 02:25:54 47° E 02:28:32 27° SSE
Cosmos 1441 Rocket 4.1 02:25:52 35° W 02:26:23 37° WNW 02:30:06 10° N
Cosmos 2082 Rocket 2.7 02:28:49 29° WSW 02:31:24 50° WNW 02:36:56 10° NNE
Cosmos 1697 Rocket 3.0 02:26:48 10° NW 02:32:15 48° WSW 02:33:56 37° SSW
SL-08 R/B 4.4 02:29:29 34° S 02:32:22 90° E 02:38:31 10° N
Cosmos 332 Rocket 3.7 02:33:44 10° NNW 02:38:33 77° WSW 02:40:39 34° S
Cosmos 540 Rocket 3.6 02:36:30 10° NNW 02:41:32 53° WSW 02:43:16 37° SSW
Cosmos 2242 Rocket 3.5 02:37:48 10° N 02:42:15 87° W 02:43:56 37° S
Cosmos 1833 Rocket 3.2 02:40:04 29° WSW 02:42:45 52° WNW 02:48:16 10° NNE
Meteor 2-10 4.4 02:40:18 10° N 02:45:29 63° ENE 02:49:43 16° SSE
SL-08 R/B 3.4 02:42:54 26° SSE 02:45:41 83° ENE 02:50:38 10° NNW
Meteor 1-4 Rocket 3.6 02:43:07 10° N 02:46:45 44° ENE 02:49:06 19° SE
USA 215 3.3 02:40:23 10° NE 02:46:56 70° SE 02:50:36 28° SW
Aureole 1 Rocket 4.0 02:43:57 10° NW 02:48:12 39° WSW 02:49:39 32° SW
JB-3 4.3 02:44:33 10° N 02:48:35 70° WNW 02:49:42 44° SW
Cosmos 1805 Rocket 4.0 02:48:17 36° WSW 02:49:33 47° WNW 02:53:52 10° N
Cosmos 1455 3.3 02:47:27 10° N 02:51:05 41° ENE 02:53:42 17° SE
Cosmos 2360 4.1 02:47:22 10° NNW 02:53:05 74° WSW 02:57:25 18° SSE
ATLAS 5 CENTAUR R/B 4.0 02:50:42 11° SSE 02:53:32 17° ESE 02:56:42 10° ENE
Cosmos 1633 Rocket 3.2 02:56:59 36° SW 02:58:35 61° W 03:03:00 10° N
Cosmos 1726 2.5 02:55:33 10° NNW 02:59:06 45° W 02:59:41 41° WSW
IRS-1C 4.4 02:54:18 10° NNE 02:59:37 63° ESE 03:02:58 23° S
Cosmos 1707 Rocket 4.4 02:57:23 10° NNW 03:01:17 32° W 03:02:12 29° WSW
Lacrosse 5 2.1 03:00:40 10° WNW 03:05:28 44° SW 03:09:23 15° SSE
Cosmos 1666 Rocket 4.2 03:04:58 30° WSW 03:06:27 41° WNW 03:10:34 10° N
Cosmos 1869 3.9 03:03:25 10° N 03:07:19 55° ENE 03:10:30 15° SSE
SL-14 R/B 3.8 03:07:00 34° WSW 03:08:06 43° WNW 03:11:49 10° N
SL-16 R/B 2.2 03:05:52 10° NNW 03:11:36 86° ENE 03:17:16 10° SSE
Cosmos 1437 4.0 03:11:33 27° W 03:12:09 29° WNW 03:15:07 10° N
IRS-P3 4.3 03:08:34 10° N 03:13:49 59° WNW 03:16:50 25° SW
ATLAS CENTAUR R/B 4.5 03:10:33 10° NNW 03:14:14 21° NE 03:17:44 10° E
SL-16 R/B 3.2 03:10:18 10° SE 03:16:25 57° ENE 03:22:32 10° N
Cosmos 1470 Rocket 3.5 03:14:30 28° SSW 03:16:51 80° W 03:21:18 10° N
Resurs 1-4 Rocket 3.5 03:12:30 10° NNE 03:17:20 34° E 03:22:08 10° SSE
Cosmos 2292 Rocket 3.8 03:17:09 20° SSE 03:18:54 42° E 03:22:15 10° NNE
Cosmos 1703 3.5 03:19:12 31° SW 03:20:52 55° WNW 03:24:47 10° N
Cosmos 1626 2.3 03:18:58 25° S 03:21:02 71° E 03:24:48 10° NNE
Cosmos 1933 Rocket 3.5 03:19:13 27° SSW 03:21:33 74° W 03:25:59 10° N
Cosmos 968 Rocket 3.5 03:19:06 26° SW 03:22:02 70° WNW 03:27:11 10° NNE
Cosmos 2322 Rocket 2.1 03:19:04 10° NNW 03:24:42 71° WSW 03:30:16 10° SSE
CENTAUR R/B 3.0 03:24:34 18° WSW 03:29:16 55° NW 03:36:14 10° NE
Cosmos 371 Rocket 3.9 03:26:01 10° NW 03:30:29 38° WSW 03:33:07 21° SSW
Cosmos 1933 4.0 03:28:08 10° N 03:32:06 54° ENE 03:36:03 10° SSE
Cosmos 1271 Rocket 2.9 03:28:47 10° NNW 03:32:28 48° W 03:34:25 24° SSW
Spot 4 Rocket 4.0 03:29:31 10° NNE 03:34:43 88° WNW 03:38:41 17° SSW
EO 1 Del DPAF 3.3 03:30:52 10° SSE 03:34:46 82° ENE 03:38:42 10° NNW
USA 161 1.2 03:34:43 44° SW 03:34:59 47° W 03:37:18 10° NNW
CZ-3 Stage 3 4.3 03:26:21 10° WSW 03:35:54 22° SSW 03:39:30 10° SSE
Lacrosse 5 rocket 1.4 03:31:45 10° NW 03:36:06 69° SW 03:40:37 10° SE
Abrixas 3.4 03:36:06 13° W 03:38:43 49° N 03:41:44 10° ENE
Cosmos 1709 Rocket 4.0 03:33:47 17° SSW 03:38:47 74° W 03:45:04 10° N
Cosmos 923 Rocket 4.0 03:34:25 10° NNW 03:39:42 71° WSW 03:44:54 10° S
Cosmos 1346 3.7 03:39:40 17° S 03:41:50 52° E 03:44:51 10° NNE
Okean 1-7 4.1 03:39:04 10° N 03:43:19 46° ENE 03:47:31 10° SSE
Okean O Rocket 3.5 03:42:56 10° NE 03:46:43 26° E 03:50:25 10° SSE
Cosmos 304 Rocket 3.8 03:42:21 10° NNW 03:47:13 90° NNW 03:52:03 10° SSE
Cosmos 1680 Rocket 3.4 03:44:16 10° NNW 03:49:29 76° WSW 03:54:41 10° SSE
H-2A R/B 3.7 03:45:24 17° SW 03:49:40 36° SSE 04:13:27 10° ESE
USA 129 1.7 03:50:47 42° NNE 03:50:47 42° NNE 03:51:51 10° N
Cosmos 1862 Rocket 4.4 03:50:13 10° NNW 03:54:15 34° W 03:57:14 16° SSW
Cosmos 1980 Rocket 3.7 03:51:09 10° WNW 03:54:39 17° W 03:56:35 14° WSW
Cosmos 1777 Rocket 4.3 03:50:55 17° SW 03:54:57 59° WNW 04:00:13 10° NNE
Cosmos 2360 Rocket 2.4 03:50:27 10° NNW 03:56:07 79° ENE 04:01:45 10° SSE
ERS-2 4.3 03:55:38 10° NNW 03:57:54 16° WNW 04:00:00 11° W
CZ-2D R/B 2.2 03:55:35 10° NNE 04:00:51 78° ESE 04:06:09 10° S
ISS -3.5 03:57:36 10° WNW 04:00:53 79° SSW 04:04:08 10° SE
ADEOS 4.2 03:58:12 10° N 04:03:07 43° WNW 04:07:24 13° SW
Thor Agena Rocket 4.5 03:59:53 10° SE 04:05:02 53° ENE 04:10:10 10° N
IRS-1D 3.6 04:00:21 10° N 04:05:43 76° WNW 04:11:01 10° SSW
ARIANE 5 R/B 2.6 04:00:42 10° N 04:05:48 68° WNW 04:10:38 11° SSW
Cosmos 2221 Rocket 3.6 04:02:48 10° NNW 04:07:16 65° W 04:11:44 10° S
Cosmos 2322 3.7 04:03:04 10° NNW 04:08:51 86° WSW 04:14:34 10° SSE
Cosmos 2219 4.2 04:05:10 10° S 04:10:32 44° ESE 04:15:58 10° NE
Cosmos 389 Rocket 4.3 04:11:12 10° N 04:14:39 36° ENE 04:18:05 10° SE
CZ-2C R/B 3.9 04:12:06 10° SSE 04:16:34 79° ENE 04:21:09 10° NNW
UNK 4.0 04:13:10 10° S 04:17:37 50° W 04:22:05 10° NNW
MTI 4.2 04:15:49 10° S 04:19:03 45° W 04:22:19 10° NNW
Cosmos 1869 Rocket 3.6 04:17:42 10° SSW 04:22:03 65° W 04:26:28 10° N
Cosmos 1898 Rocket 4.1 04:17:30 10° S 04:22:33 56° ESE 04:27:37 10° NNE
Cosmos 1455 4.1 04:24:20 10° NW 04:26:27 14° W 04:28:33 10° WSW
Cosmos 2333 Rocket 4.4 04:22:23 10° N 04:27:24 31° NE 04:32:26 10° ESE
OAO 3 Rocket 4.4 04:23:53 10° SW 04:27:28 22° S 04:31:08 10° SE
USA 215 4.0 04:23:32 10° NE 04:29:46 48° NNW 04:35:58 10° W
Cosmos 1937 Rocket 4.4 04:27:14 10° S 04:32:20 50° ESE 04:37:28 10° NNE
Cosmos 2150 Rocket 4.3 04:29:09 10° SSW 04:34:25 75° ESE 04:39:49 10° NNE
ATLAS 5 CENTAUR R/B 2.0 04:32:33 10° SW 04:37:28 75° NW 04:42:50 10° NE
COSMOS 2428 2.9 04:32:29 10° NNW 04:38:12 84° ENE 04:43:53 10° SSE
ADEOS II 4.4 04:35:49 10° NE 04:40:01 24° E 04:44:10 10° SE
Cosmos 1833 4.4 04:35:14 10° SW 04:40:58 65° WNW 04:46:42 10° NNE
